カタログに戻る

MENUT

運用中科学SSO
NORAD 55010·PAYLOAD·🇪🇸 Spain

打ち上げ Jan 3, 2023 から Cape Canaveral Space Force Station

Loading…

次のパス (今後24時間)

TLE

最新Source: Space-Track

元期: Sep 14, 2026, 15:42 UTC

1 55010U 23001B   26257.65457189  .00133220  00000-0  82285-3 0  9993
2 55010  97.2989 329.2249 0003370 162.6043 197.5339 15.76732299206414

AllMySatでMENUTをリアルタイム追跡

Download on the App Store